When you browse on this site, cookies collect data to enhance your experience and personalize the content and advertising you see.
Visit our Privacy Policy to learn more. By continuing to use the site, you agree to this use of cookies and data.
  • In Hungary
  • List of Countries
  • For 7 days
  • Water Temperature
  • Satellite Maps
  • Weather Map
  • News
  • Weather Widgets
  • user-avatar
    Login

    Hourly Weather Chachapoyas

    Today, 19 January, Saturday

    Time Temperature Precipitation Wind Pressure Humidity
    00:00 +10°C° 0.1 mm 1 mps 574 mmHg 89%
    01:00 +10°C° 0 mm 1 mps 574 mmHg 88%
    02:00 +10°C° 0.1 mm 1 mps 574 mmHg 87%
    03:00 +11°C° 0.1 mm 1 mps 574 mmHg 85%
    04:00 +11°C° 0.1 mm 1 mps 574 mmHg 84%
    05:00 +11°C° 0.3 mm 1 mps 574 mmHg 83%
    06:00 +11°C° 0.3 mm 1 mps 574 mmHg 82%
    07:00 +11°C° 0.3 mm 1 mps 575 mmHg 81%
    08:00 +13°C° 0.4 mm 1 mps 576 mmHg 76%
    09:00 +14°C° 0.4 mm 1 mps 576 mmHg 71%
    10:00 +15°C° 0.4 mm 1 mps 577 mmHg 65%
    11:00 +15°C° 0.4 mm 1 mps 576 mmHg 67%
    12:00 +15°C° 0.4 mm 1 mps 576 mmHg 70%
    13:00 +15°C° 0.4 mm 1 mps 575 mmHg 72%
    14:00 +16°C° 0.2 mm 1 mps 575 mmHg 66%
    15:00 +18°C° 0.2 mm 1 mps 575 mmHg 60%
    16:00 +19°C° 0.2 mm 2 mps 576 mmHg 54%
    17:00 +17°C° 0 mm 2 mps 575 mmHg 61%
    18:00 +15°C° 0 mm 1 mps 574 mmHg 67%
    19:00 +13°C° 0 mm 1 mps 573 mmHg 74%
    20:00 +13°C° 0 mm 1 mps 574 mmHg 75%
    21:00 +12°C° 0 mm 1 mps 574 mmHg 76%
    22:00 +11°C° 0 mm 1 mps 574 mmHg 78%
    23:00 +11°C° 0.3 mm 1 mps 574 mmHg 78%

    Tomorrow, 20 January, Sunday

    Time Temperature Precipitation Wind Pressure Humidity
    00:00 +11°C° 0.3 mm 1 mps 574 mmHg 78%
    01:00 +10°C° 0.3 mm 1 mps 574 mmHg 78%
    02:00 +10°C° 0.3 mm 1 mps 573 mmHg 79%
    03:00 +10°C° 0.3 mm 1 mps 573 mmHg 80%
    04:00 +10°C° 0.3 mm 1 mps 573 mmHg 81%
    05:00 +11°C° 0.2 mm 1 mps 574 mmHg 80%
    06:00 +11°C° 0.2 mm 1 mps 574 mmHg 79%
    07:00 +12°C° 0.2 mm 1 mps 574 mmHg 78%
    08:00 +14°C° 0.1 mm 2 mps 576 mmHg 72%
    09:00 +15°C° 0.1 mm 2 mps 577 mmHg 67%
    10:00 +17°C° 0.1 mm 3 mps 578 mmHg 62%
    11:00 +18°C° 0.1 mm 3 mps 578 mmHg 59%
    12:00 +19°C° 0.1 mm 3 mps 578 mmHg 56%
    13:00 +20°C° 0.1 mm 3 mps 577 mmHg 53%
    14:00 +20°C° 0.1 mm 2 mps 577 mmHg 54%
    15:00 +20°C° 0.1 mm 2 mps 576 mmHg 54%
    16:00 +20°C° 0.1 mm 2 mps 575 mmHg 55%
    17:00 +18°C° 0 mm 2 mps 575 mmHg 62%
    18:00 +16°C° 0 mm 1 mps 574 mmHg 70%
    19:00 +14°C° 0 mm 1 mps 573 mmHg 78%
    20:00 +13°C° 0 mm 1 mps 573 mmHg 79%
    21:00 +12°C° 0 mm 1 mps 574 mmHg 81%
    22:00 +11°C° 0 mm 1 mps 574 mmHg 83%
    23:00 +11°C° 0.1 mm 1 mps 574 mmHg 82%

    Day after tomorrow, 21 January, Monday

    Time Temperature Precipitation Wind Pressure Humidity
    00:00 +11°C° 0.1 mm 1 mps 574 mmHg 81%
    01:00 +11°C° 0.1 mm 1 mps 573 mmHg 80%
    02:00 +11°C° 0.2 mm 1 mps 573 mmHg 81%
    03:00 +11°C° 0.2 mm 1 mps 573 mmHg 81%
    04:00 +11°C° 0.2 mm 1 mps 573 mmHg 82%
    05:00 +11°C° 0.2 mm 1 mps 573 mmHg 80%
    06:00 +12°C° 0.2 mm 1 mps 574 mmHg 79%
    07:00 +12°C° 0.2 mm 1 mps 574 mmHg 77%
    08:00 +14°C° 0.3 mm 1 mps 576 mmHg 71%
    09:00 +18°C° 0.3 mm 1 mps 577 mmHg 65%
    10:00 +19°C° 0.3 mm 2 mps 578 mmHg 59%
    11:00 +20°C° 0.3 mm 1 mps 578 mmHg 61%
    12:00 +19°C° 0.3 mm 1 mps 577 mmHg 62%
    13:00 +19°C° 0.3 mm 1 mps 576 mmHg 63%
    14:00 +20°C° 0.3 mm 1 mps 576 mmHg 62%
    15:00 +20°C° 0.3 mm 1 mps 575 mmHg 61%
    16:00 +21°C° 0.3 mm 1 mps 575 mmHg 59%
    17:00 +19°C° 0.5 mm 1 mps 574 mmHg 67%
    18:00 +16°C° 0.5 mm 1 mps 574 mmHg 76%
    19:00 +14°C° 0.5 mm 1 mps 573 mmHg 84%
    20:00 +14°C° 0.5 mm 1 mps 574 mmHg 86%
    21:00 +13°C° 0.5 mm 1 mps 574 mmHg 88%
    22:00 +13°C° 0.5 mm 1 mps 575 mmHg 90%
    23:00 +13°C° 0.6 mm 1 mps 575 mmHg 90%

    22 January, Tuesday

    Time Temperature Precipitation Wind Pressure Humidity
    00:00 +13°C° 0.6 mm 1 mps 575 mmHg 90%
    01:00 +13°C° 0.6 mm 1 mps 574 mmHg 89%
    02:00 +13°C° 0.7 mm 1 mps 574 mmHg 89%
    03:00 +13°C° 0.7 mm 1 mps 574 mmHg 88%
    04:00 +13°C° 0.7 mm 1 mps 573 mmHg 88%
    05:00 +12°C° 0.6 mm 1 mps 574 mmHg 88%
    06:00 +12°C° 0.6 mm 1 mps 574 mmHg 87%
    07:00 +12°C° 0.6 mm 1 mps 575 mmHg 87%
    08:00 +13°C° 0.7 mm 1 mps 575 mmHg 87%
    09:00 +13°C° 0.7 mm 1 mps 575 mmHg 86%
    10:00 +13°C° 0.7 mm 1 mps 576 mmHg 85%
    11:00 +14°C° 0.7 mm 1 mps 575 mmHg 84%
    12:00 +14°C° 0.7 mm 1 mps 575 mmHg 82%
    13:00 +15°C° 0.7 mm 1 mps 575 mmHg 81%
    14:00 +15°C° 0.3 mm 0 mps 575 mmHg 78%
    15:00 +15°C° 0.3 mm 0 mps 574 mmHg 74%
    16:00 +16°C° 0.3 mm 0 mps 574 mmHg 71%
    17:00 +15°C° 0.9 mm 0 mps 574 mmHg 77%
    18:00 +14°C° 0.9 mm 0 mps 574 mmHg 84%
    19:00 +13°C° 0.9 mm 0 mps 574 mmHg 90%
    20:00 +12°C° 3 mm 0 mps 574 mmHg 92%
    21:00 +12°C° 3 mm 0 mps 575 mmHg 94%
    22:00 +12°C° 3 mm 0 mps 575 mmHg 95%
    23:00 +12°C° 3 mm 0 mps 575 mmHg 95%

    23 January, Wednesday

    Time Temperature Precipitation Wind Pressure Humidity
    00:00 +12°C° 3 mm 0 mps 575 mmHg 95%
    01:00 +12°C° 3 mm 0 mps 575 mmHg 94%
    02:00 +12°C° 1.6 mm 1 mps 574 mmHg 94%
    03:00 +12°C° 1.6 mm 1 mps 574 mmHg 93%
    04:00 +12°C° 1.6 mm 1 mps 573 mmHg 93%
    05:00 +12°C° 2.5 mm 1 mps 574 mmHg 93%
    06:00 +12°C° 2.5 mm 1 mps 574 mmHg 93%
    07:00 +12°C° 2.5 mm 1 mps 574 mmHg 93%
    08:00 +12°C° 2.7 mm 1 mps 575 mmHg 93%
    09:00 +12°C° 2.7 mm 1 mps 575 mmHg 93%
    10:00 +12°C° 2.7 mm 1 mps 576 mmHg 93%
    11:00 +12°C° 1.7 mm 1 mps 575 mmHg 93%
    12:00 +11°C° 1.7 mm 0 mps 575 mmHg 93%
    13:00 +11°C° 1.7 mm 0 mps 574 mmHg 93%
    14:00 +12°C° 1.1 mm 1 mps 574 mmHg 93%
    15:00 +12°C° 1.1 mm 1 mps 573 mmHg 93%
    16:00 +12°C° 1.1 mm 1 mps 572 mmHg 94%
    17:00 +12°C° 0.3 mm 1 mps 572 mmHg 93%
    18:00 +12°C° 0.3 mm 1 mps 573 mmHg 93%
    19:00 +12°C° 0.3 mm 1 mps 573 mmHg 93%
    20:00 +12°C° 0.3 mm 1 mps 573 mmHg 92%
    21:00 +12°C° 0.3 mm 1 mps 574 mmHg 92%
    22:00 +12°C° 0.3 mm 1 mps 574 mmHg 91%
    23:00 +12°C° 0.7 mm 1 mps 574 mmHg 91%

    24 January, Thursday

    Time Temperature Precipitation Wind Pressure Humidity
    00:00 +12°C° 0.7 mm 1 mps 574 mmHg 91%
    01:00 +11°C° 0.7 mm 0 mps 574 mmHg 91%
    02:00 +12°C° 1.4 mm 1 mps 574 mmHg 91%
    03:00 +12°C° 1.4 mm 1 mps 573 mmHg 92%
    04:00 +12°C° 1.4 mm 1 mps 573 mmHg 93%
    05:00 +11°C° 2.3 mm 1 mps 573 mmHg 93%
    06:00 +11°C° 2.3 mm 1 mps 574 mmHg 93%
    07:00 +11°C° 2.3 mm 1 mps 574 mmHg 94%
    08:00 +11°C° 2.4 mm 1 mps 575 mmHg 94%
    09:00 +12°C° 2.4 mm 1 mps 575 mmHg 94%
    10:00 +12°C° 2.4 mm 1 mps 575 mmHg 94%
    11:00 +12°C° 1.2 mm 1 mps 575 mmHg 92%
    12:00 +12°C° 1.2 mm 1 mps 575 mmHg 91%
    13:00 +13°C° 1.2 mm 1 mps 574 mmHg 89%
    14:00 +15°C° 0.1 mm 1 mps 574 mmHg 80%
    15:00 +18°C° 0.1 mm 1 mps 574 mmHg 72%
    16:00 +20°C° 0.1 mm 1 mps 575 mmHg 63%
    17:00 +18°C° 0 mm 1 mps 574 mmHg 70%
    18:00 +14°C° 0 mm 0 mps 573 mmHg 77%
    19:00 +12°C° 0 mm 0 mps 572 mmHg 83%
    20:00 +12°C° 0 mm 0 mps 573 mmHg 84%
    21:00 +11°C° 0 mm 0 mps 574 mmHg 85%
    22:00 +11°C° 0 mm 0 mps 574 mmHg 86%
    23:00 +11°C° 0.1 mm 0 mps 574 mmHg 87%
    Show more